This is the latest recevied weather packets stored in our database for station/object OE-11179. If no packets are shown the sender has not sent any weather packets the latest 10 day(s).
| Time | Temp. | Humidity | Pressure | Rain* | Wind** | Luminosity | Snow |
|---|---|---|---|---|---|---|---|
| 1787609130 | 15.56° C | 88% | - | 0.76 mm | - | - | - |
| 1787607703 | 15.56° C | 91% | - | 0.76 mm | - | - | - |
| 1787607330 | 16.11° C | 88% | - | 0.51 mm | - | - | - |
| 1787606729 | 16.11° C | 90% | - | 0.51 mm | - | - | - |
| 1787605903 | 16.67° C | 84% | - | 0 mm | - | - | - |
| 1787605530 | 16.11° C | 85% | - | 0 mm | - | - | - |
| 1787604930 | 16.11° C | 84% | - | 0 mm | - | - | - |
| 1787604103 | 16.11° C | 85% | - | 0 mm | - | - | - |
| 1787603729 | 16.11° C | 84% | - | 0 mm | - | - | - |
| 1787603130 | 15.56° C | 86% | - | 0 mm | - | - | - |
| 1787602542 | 15.56° C | 86% | - | 0 mm | - | - | - |
| 1787601930 | 15.56° C | 86% | - | 0 mm | - | - | - |
| 1787601330 | 15.56° C | 86% | - | 0 mm | - | - | - |
| 1787600503 | 15.56° C | 86% | - | 0 mm | - | - | - |
| 1787600130 | 16.11° C | 86% | - | 0 mm | - | - | - |
| 1787599529 | 15.56° C | 85% | - | 0 mm | - | - | - |
| 1787598703 | 16.67° C | 84% | - | 0 mm | - | - | - |
| 1787598329 | 16.11° C | 83% | - | 0 mm | - | - | - |
| 1787597730 | 16.67° C | 81% | - | 0 mm | - | - | - |
| 1787596903 | 16.11° C | 82% | - | 0 mm | - | - | - |
| 1787596529 | 16.67° C | 80% | - | 0 mm | - | - | - |
| 1787595930 | 16.67° C | 83% | - | 0 mm | - | - | - |
| 1787595103 | 16.67° C | 79% | - | 0 mm | - | - | - |
| 1787594730 | 17.78° C | 76% | - | 0 mm | - | - | - |
| 1787594128 | 17.78° C | 76% | - | 0 mm | - | - | - |
* Rain latest hour (hover to see other rain measurements)
** Current wind speed in m/s (hover to see current wind gust speed)